Location: Deer Lodge Site
(39.6809°N, 119.9392°W)
Time: 06:48:27
(UTC-07:00)

Amateur Radio Satellites - All Passes

Search period start: 23 July 2014 06:18
Search period end: 24 July 2014 06:18
Location: Deer Lodge Site, 39.6809°N, 119.9392°W

Satellite Date Start Highest point End Downlink Frequencies (MHz)
Time Altitude Azimuth
KITSAT 1 23 Jul 06:31:40 06:38:11 28° 105° (ESE) 06:44:42 435.175 FM
MaSat-1 23 Jul 06:55:39 06:58:27 14° 47° (NE) 07:01:13 437.345 MHz
ISS 23 Jul 07:09:19 07:11:46 18° 21° (NNE) 07:14:13 145.800 FM
Lituanica SAT-1 23 Jul 07:43:41 07:45:40 28° 223° (SW) 07:47:38 437.275 MHz beacon
STRAND 1 23 Jul 07:47:43 07:52:14 31° 264° (W) 07:56:47 ?
Hamsat 23 Jul 07:48:13 07:51:59 31° 289° (WNW) 07:55:45 145.90 MHz
JAS-2 23 Jul 07:48:50 07:55:04 65° 288° (WNW) 08:00:35 435.800 - 435.900 CW/SSB, 435.910 FM
AO-7 23 Jul 07:48:53 07:54:08 19° 309° (NW) 07:59:23 29.400 - 29.500 MHz
SO-67 23 Jul 07:51:52 07:55:12 42° 98° (E) 07:58:30 435.3500 MHz FM
KITSAT 1 23 Jul 08:24:56 08:32:58 64° 304° (WNW) 08:41:02 435.175 FM
PANSAT 23 Jul 08:31:13 08:33:05 13° 171° (S) 08:34:57 not established
MaSat-1 23 Jul 08:31:16 08:36:38 85° 65° (ENE) 08:41:46 437.345 MHz
ISS 23 Jul 08:45:30 08:48:53 86° 219° (SW) 08:52:14 145.800 FM
Saudisat 1A 23 Jul 08:45:45 08:49:36 30° 114° (ESE) 08:53:28 436.775 MHz
SO-67 23 Jul 09:27:02 09:27:52 11° 294° (WNW) 09:28:41 435.3500 MHz FM
UKube-1 23 Jul 09:34:42 09:38:12 23° 95° (E) 09:41:41 145.840 MHz, 145.915 MHz
HO-68 23 Jul 09:39:45 09:46:34 45° 100° (E) 09:53:19 435.675 MHz FM
PCSat 23 Jul 10:06:09 10:09:36 17° 44° (NE) 10:13:02 145.825 MHz
PANSAT 23 Jul 10:10:19 10:12:35 15° 184° (S) 10:14:50 not established
MaSat-1 23 Jul 10:11:22 10:13:12 12° 262° (W) 10:15:01 437.345 MHz
KITSAT 1 23 Jul 10:24:50 10:30:06 18° 327° (NNW) 10:35:23 435.175 FM
Saudisat 1A 23 Jul 10:25:16 10:29:08 29° 311° (NW) 10:33:02 436.775 MHz
Oscar 11 23 Jul 10:26:15 10:30:25 44° 99° (E) 10:34:33 145.825 FM, Beacon 2401.500 USB
FUNcube-1 23 Jul 10:31:11 10:33:55 17° 93° (E) 10:36:40 145.950 - 145.970 MHz USB
UKube-1 23 Jul 11:10:37 11:14:24 29° 291° (WNW) 11:18:09 145.840 MHz, 145.915 MHz
Sapphire 23 Jul 11:14:14 11:19:30 49° 57° (ENE) 11:24:44 437.095 MHz 1200 baud AX-25 AFSK
HO-68 23 Jul 11:27:47 11:34:03 34° 297° (WNW) 11:40:18 435.675 MHz FM
PCSat 23 Jul 11:48:15 11:53:42 82° 243° (WSW) 11:59:06 145.825 MHz
Oscar 11 23 Jul 12:03:34 12:06:14 16° 295° (WNW) 12:08:54 145.825 FM, Beacon 2401.500 USB
FUNcube-1 23 Jul 12:06:39 12:10:27 36° 288° (WNW) 12:14:16 145.950 - 145.970 MHz USB
Oscar 19 23 Jul 12:40:24 12:44:07 21° 64° (ENE) 12:47:50 437.125 CW, 437.150 USB
AO-40 23 Jul 12:41:15 06:17:57 38° 204° (SSW) 13:22:10 Beacon 2401.320
Sapphire 23 Jul 12:58:27 13:02:33 22° 254° (WSW) 13:06:39 437.095 MHz 1200 baud AX-25 AFSK
JAS-1B 23 Jul 13:01:00 13:06:55 20° 51° (NE) 13:13:11 435.800 - 435.900 CW/SSB
Oscar 16 23 Jul 13:06:31 13:11:11 38° 69° (ENE) 13:15:53 437.025 USB, Beacon 2401.1428
ITAMSAT 1 23 Jul 13:15:36 13:19:29 22° 64° (ENE) 13:23:21 435.822 SSB
Gurwin Techsat 1B 23 Jul 13:24:58 13:25:28 10° 58° (ENE) 13:25:58 435.225 FM
RS-15 23 Jul 13:30:34 13:40:06 34° 106° (ESE) 13:49:25 29.354 - 29.394 USB, Beacon 29.352 USB
AO-27 23 Jul 13:32:22 13:36:54 31° 67° (ENE) 13:41:27 436.795 MHz FM
Uribyol 2 23 Jul 13:35:42 13:40:21 34° 68° (ENE) 13:45:01 436.500 FM
AO-Echo 23 Jul 13:43:22 13:48:12 39° 70° (ENE) 13:53:07 ?
SO-50 23 Jul 13:48:44 13:52:52 40° 115° (ESE) 13:57:06 436.795 FM
Oscar 19 23 Jul 14:18:12 14:23:06 47° 261° (W) 14:28:02 437.125 CW, 437.150 USB
KITSAT 1 23 Jul 14:24:52 14:29:35 16° 30° (NNE) 14:34:18 435.175 FM
TMSAT-1 23 Jul 14:39:22 14:44:11 37° 69° (ENE) 14:49:02 436.925 FM
Oscar 16 23 Jul 14:46:29 14:50:37 24° 265° (W) 14:54:46 437.025 USB, Beacon 2401.1428
UOSAT-12 23 Jul 14:47:01 14:47:44 10° 106° (ESE) 14:48:27 437.025 FM, 437.400 FM
JAS-1B 23 Jul 14:47:18 14:55:41 79° 72° (ENE) 15:05:23 435.800 - 435.900 CW/SSB
ITAMSAT 1 23 Jul 14:53:36 14:58:37 47° 260° (W) 15:03:40 435.822 SSB
Gurwin Techsat 1B 23 Jul 14:59:14 15:04:32 79° 75° (ENE) 15:09:52 435.225 FM
AO-7 23 Jul 15:01:23 15:08:09 29° 57° (ENE) 15:14:55 29.400 - 29.500 MHz
AO-27 23 Jul 15:11:43 15:16:20 32° 263° (W) 15:20:59 436.795 MHz FM
Uribyol 2 23 Jul 15:15:24 15:19:50 28° 264° (W) 15:24:16 436.500 FM
AO-Echo 23 Jul 15:22:43 15:27:02 26° 266° (W) 15:31:25 ?
SO-50 23 Jul 15:29:56 15:33:34 24° 313° (NW) 15:37:16 436.795 FM
Uosat F 23 Jul 15:35:44 15:40:03 29° 67° (ENE) 15:44:23 435.120 FM
RS-15 23 Jul 15:40:39 15:51:42 66° 307° (NW) 16:02:35 29.354 - 29.394 USB, Beacon 29.352 USB
OPAL 23 Jul 16:07:04 16:10:46 20° 96° (E) 16:14:29 ?
KITSAT 1 23 Jul 16:19:05 16:27:01 56° 54° (NE) 16:34:53 435.175 FM
JAS-2 23 Jul 16:19:33 16:21:12 11° 53° (NE) 16:22:50 435.800 - 435.900 CW/SSB, 435.910 FM
TMSAT-1 23 Jul 16:19:46 16:24:09 26° 265° (W) 16:28:35 436.925 FM
UOSAT-12 23 Jul 16:22:34 16:27:09 81° 302° (WNW) 16:31:51 437.025 FM, 437.400 FM
JAS-1B 23 Jul 16:40:44 16:47:12 24° 273° (W) 16:54:21 435.800 - 435.900 CW/SSB
Gurwin Techsat 1B 23 Jul 16:43:08 16:45:04 12° 271° (W) 16:47:00 435.225 FM
AO-7 23 Jul 16:51:59 17:00:17 68° 255° (WSW) 17:08:38 29.400 - 29.500 MHz
Hamsat 23 Jul 17:06:35 17:08:51 14° 65° (ENE) 17:11:07 145.90 MHz
Saudisat 1A 23 Jul 17:13:14 17:16:41 22° 46° (NE) 17:20:07 436.775 MHz
Uosat F 23 Jul 17:14:17 17:18:44 31° 263° (W) 17:23:13 435.120 FM
OPAL 23 Jul 17:45:02 17:49:50 46° 291° (WNW) 17:54:40 ?
JAS-2 23 Jul 17:57:08 18:04:43 55° 70° (ENE) 18:12:02 435.800 - 435.900 CW/SSB, 435.910 FM
RS-15 23 Jul 17:58:24 18:06:42 24° 335° (NNW) 18:15:01 29.354 - 29.394 USB, Beacon 29.352 USB
UOSAT-12 23 Jul 18:05:57 18:08:05 13° 322° (NW) 18:10:13 437.025 FM, 437.400 FM
KITSAT 1 23 Jul 18:15:04 18:22:01 33° 253° (WSW) 18:28:56 435.175 FM
SO-67 23 Jul 18:25:49 18:27:34 14° 68° (ENE) 18:29:20 435.3500 MHz FM
Hamsat 23 Jul 18:40:24 18:44:25 46° 261° (W) 18:48:27 145.90 MHz
Saudisat 1A 23 Jul 18:52:17 18:56:27 42° 244° (WSW) 19:00:35 436.775 MHz
AO-7 23 Jul 18:52:50 18:54:28 11° 273° (W) 18:56:06 29.400 - 29.500 MHz
JAS-2 23 Jul 19:43:06 19:49:53 32° 266° (W) 19:56:32 435.800 - 435.900 CW/SSB, 435.910 FM
SO-67 23 Jul 19:57:13 20:00:21 32° 263° (W) 20:03:30 435.3500 MHz FM
STRAND 1 23 Jul 19:58:25 20:03:33 85° 285° (WNW) 20:08:39 ?
HO-68 23 Jul 20:07:51 20:14:01 32° 62° (ENE) 20:20:11 435.675 MHz FM
RS-15 23 Jul 20:17:32 20:24:44 19° 12° (NNE) 20:32:01 29.354 - 29.394 USB, Beacon 29.352 USB
UKube-1 23 Jul 20:29:58 20:33:08 20° 66° (ENE) 20:36:17 145.840 MHz, 145.915 MHz
Oscar 11 23 Jul 21:20:43 21:24:31 32° 70° (ENE) 21:28:21 145.825 FM, Beacon 2401.500 USB
FUNcube-1 23 Jul 21:27:48 21:30:08 14° 65° (ENE) 21:32:26 145.950 - 145.970 MHz USB
STRAND 1 23 Jul 21:40:56 21:41:55 11° 302° (WNW) 21:42:53 ?
HO-68 23 Jul 21:54:32 22:01:26 49° 260° (W) 22:08:21 435.675 MHz FM
UKube-1 23 Jul 22:05:03 22:09:04 36° 262° (W) 22:13:08 145.840 MHz, 145.915 MHz
SO-50 23 Jul 22:20:54 22:25:10 32° 50° (NE) 22:29:28 436.795 FM
MaSat-1 23 Jul 22:22:29 22:26:03 40° 108° (ESE) 22:30:14 437.345 MHz
RS-15 23 Jul 22:30:45 22:41:08 44° 44° (NE) 22:51:46 29.354 - 29.394 USB, Beacon 29.352 USB
Oscar 11 23 Jul 22:57:29 23:00:45 21° 266° (W) 23:04:02 145.825 FM, Beacon 2401.500 USB
FUNcube-1 23 Jul 23:01:50 23:06:07 51° 260° (W) 23:10:20 145.950 - 145.970 MHz USB
UOSAT-12 23 Jul 23:15:04 23:16:42 12° 37° (NE) 23:18:19 437.025 FM, 437.400 FM
Lituanica SAT-1 23 Jul 23:45:06 23:46:53 23° 136° (SE) 23:48:41 437.275 MHz beacon
MaSat-1 24 Jul 00:00:43 00:03:42 19° 310° (NW) 00:07:00 437.345 MHz
SO-50 24 Jul 00:01:30 00:05:41 31° 246° (WSW) 00:09:55 436.795 FM
RS-15 24 Jul 00:43:08 00:53:52 59° 247° (WSW) 01:05:01 29.354 - 29.394 USB, Beacon 29.352 USB
PCSat 24 Jul 00:48:55 00:51:36 14° 103° (ESE) 00:54:17 145.825 MHz
UOSAT-12 24 Jul 00:53:01 00:57:44 69° 56° (ENE) 01:02:23 437.025 FM, 437.400 FM
Lituanica SAT-1 24 Jul 01:18:09 01:19:41 17° 332° (NNW) 01:21:14 437.275 MHz beacon
Oscar 16 24 Jul 01:20:28 01:23:06 14° 91° (E) 01:25:43 437.025 USB, Beacon 2401.1428
ISS 24 Jul 01:27:20 01:30:34 48° 138° (SE) 01:33:49 145.800 FM
AO-27 24 Jul 01:48:48 01:49:58 11° 89° (E) 01:51:09 436.795 MHz FM
Uribyol 2 24 Jul 01:51:12 01:53:13 12° 90° (E) 01:55:13 436.500 FM
AO-Echo 24 Jul 01:53:40 01:55:50 13° 89° (E) 01:57:58 ?
Sapphire 24 Jul 01:55:06 02:00:20 53° 113° (ESE) 02:05:36 437.095 MHz 1200 baud AX-25 AFSK
PCSat 24 Jul 02:28:55 02:34:19 74° 299° (WNW) 02:39:45 145.825 MHz
Oscar 19 24 Jul 02:30:19 02:35:28 66° 102° (ESE) 02:40:35 437.125 CW, 437.150 USB
UOSAT-12 24 Jul 02:35:09 02:37:17 13° 253° (WSW) 02:39:24 437.025 FM, 437.400 FM
JAS-1B 24 Jul 02:35:43 02:43:42 30° 90° (E) 02:50:47 435.800 - 435.900 CW/SSB
TMSAT-1 24 Jul 02:57:13 03:00:17 15° 91° (E) 03:03:20 436.925 FM
Oscar 16 24 Jul 02:57:46 03:02:53 66° 286° (WNW) 03:07:59 437.025 USB, Beacon 2401.1428
ISS 24 Jul 03:04:39 03:07:27 24° 335° (NNW) 03:10:16 145.800 FM
ITAMSAT 1 24 Jul 03:07:08 03:12:19 67° 102° (ESE) 03:17:26 435.822 SSB
Gurwin Techsat 1B 24 Jul 03:16:41 03:21:28 33° 97° (E) 03:26:13 435.225 FM
OPAL 24 Jul 03:21:07 03:25:31 33° 66° (ENE) 03:29:55 ?
AO-27 24 Jul 03:24:52 03:30:05 82° 285° (WNW) 03:35:15 436.795 MHz FM
Uribyol 2 24 Jul 03:28:03 03:33:13 74° 286° (WNW) 03:38:20 436.500 FM
AO-Echo 24 Jul 03:30:01 03:35:09 70° 286° (WNW) 03:40:05 ?
Sapphire 24 Jul 03:39:46 03:44:04 24° 311° (NW) 03:48:23 437.095 MHz 1200 baud AX-25 AFSK
Oscar 19 24 Jul 04:11:16 04:14:14 16° 298° (WNW) 04:17:13 437.125 CW, 437.150 USB
PCSat 24 Jul 04:16:12 04:18:42 13° 319° (NW) 04:21:12 145.825 MHz
JAS-1B 24 Jul 04:25:17 04:34:50 66° 290° (WNW) 04:43:08 435.800 - 435.900 CW/SSB
TMSAT-1 24 Jul 04:35:23 04:40:37 62° 287° (WNW) 04:45:49 436.925 FM
ISS 24 Jul 04:44:02 04:45:08 11° 355° (N) 04:46:15 145.800 FM
ITAMSAT 1 24 Jul 04:48:16 04:51:13 16° 299° (WNW) 04:54:10 435.822 SSB
AO-7 24 Jul 04:54:40 05:02:35 45° 100° (E) 05:10:24 29.400 - 29.500 MHz
Gurwin Techsat 1B 24 Jul 04:56:46 05:01:19 30° 293° (WNW) 05:05:52 435.225 FM
OPAL 24 Jul 05:00:15 05:04:24 27° 262° (W) 05:08:34 ?
AO-27 24 Jul 05:07:55 05:08:44 10° 302° (WNW) 05:09:33 436.795 MHz FM
Uosat F 24 Jul 05:22:06 05:27:09 86° 104° (ESE) 05:32:10 435.120 FM
STRAND 1 24 Jul 05:37:00 05:40:00 16° 62° (ENE) 05:43:01 ?
Lituanica SAT-1 24 Jul 05:58:51 06:00:32 20° 29° (NNE) 06:02:14 437.275 MHz beacon
